Location: Kings Park
(40.8862°N, 73.2573°W)
Time: 05:05:27
(UTC+00:00)

USA 305 - Pass Details

Date: 29 October 2020
Orbit: 569 x 577 km, 54.0° (Epoch: 22 November)

Event Time Altitude Azimuth Distance (km) Brightness Sun altitude
Rises 22:37:39 0° 314° (NW) 2,786 7.0 -9.2°
Reaches altitude 10° 22:40:10 10° 326° (NW) 1,884 5.9 -9.7°
Maximum altitude 22:43:54 28° 27° (NNE) 1,080 4.0 -10.4°
Enters shadow 22:46:38 15° 79° (E) 1,558 4.4 -10.9°
